AAL2025 KMCO-KASN

Flight info

Callsign AAL2025
Flight time 1h 14m
Altitude 37000
Route RDSOX1 JFRYS PATOY Q116 DEEDA WANDS
Aircraft MD11/H-SDE1E2E3FGHIJ2J3J4J5M1RWXY/LB1D1

Departure

Time 2026-04-27 22:46
Airport Orlando International Airport (KMCO)

Arrival

Time 2026-04-28 00:01
Airport Talladega Municipal Airport (KASN)
Time Latitude Longitude Altitude Speed Heading
2026-04-27 22:31 28.42643 -81.31571 102 ft 0 kts 130°
2026-04-27 22:38 28.42649 -81.31579 103 ft 4 kts 132°
2026-04-27 22:39 28.42666 -81.31601 102 ft 3 kts 123°
2026-04-27 22:39 28.42677 -81.31621 101 ft 4 kts 108°
2026-04-27 22:39 28.42682 -81.31634 102 ft 4 kts 136°
2026-04-27 22:39 28.42702 -81.31650 101 ft 4 kts 164°
2026-04-27 22:40 28.42719 -81.31654 101 ft 0 kts 171°
2026-04-27 22:42 28.42708 -81.31652 102 ft 4 kts 171°
2026-04-27 22:42 28.42665 -81.31643 101 ft 8 kts 167°
2026-04-27 22:42 28.42589 -81.31623 104 ft 9 kts 167°
2026-04-27 22:43 28.42514 -81.31609 104 ft 3 kts 177°
2026-04-27 22:43 28.42500 -81.31612 106 ft 5 kts 189°
2026-04-27 22:43 28.42464 -81.31633 107 ft 4 kts 218°
2026-04-27 22:43 28.42412 -81.31663 107 ft 17 kts 206°
2026-04-27 22:44 28.42350 -81.31759 107 ft 18 kts 255°
2026-04-27 22:44 28.42281 -81.31839 107 ft 13 kts 194°
2026-04-27 22:44 28.42150 -81.31863 106 ft 24 kts 188°
2026-04-27 22:44 28.41973 -81.31878 106 ft 28 kts 182°
2026-04-27 22:45 28.41781 -81.31875 106 ft 26 kts 180°
2026-04-27 22:45 28.41609 -81.31884 107 ft 19 kts 190°
2026-04-27 22:45 28.41545 -81.31966 105 ft 15 kts 253°
2026-04-27 22:45 28.41541 -81.32111 105 ft 19 kts 277°
2026-04-27 22:46 28.41618 -81.32198 106 ft 19 kts 349°
2026-04-27 22:46 28.41979 -81.32203 107 ft 98 kts
2026-04-27 22:46 28.42942 -81.32173 225 ft 166 kts
2026-04-27 22:46 28.44143 -81.32176 1299 ft 175 kts 359°
2026-04-27 22:47 28.45408 -81.32216 2348 ft 190 kts 357°
2026-04-27 22:47 28.46788 -81.32266 3435 ft 185 kts 358°
2026-04-27 22:47 28.48246 -81.32278 4195 ft 230 kts 358°
2026-04-27 22:47 28.49961 -81.32295 4900 ft 252 kts 357°
2026-04-27 22:48 28.51777 -81.32414 5445 ft 264 kts 352°
2026-04-27 22:48 28.53616 -81.32649 5769 ft 266 kts 349°
2026-04-27 22:48 28.55395 -81.33214 6149 ft 267 kts 338°
2026-04-27 22:48 28.57107 -81.34042 6526 ft 268 kts 331°
2026-04-27 22:49 28.58605 -81.35278 6877 ft 267 kts 312°
2026-04-27 22:49 28.59537 -81.37090 7229 ft 269 kts 287°
2026-04-27 22:49 28.59786 -81.39207 7595 ft 273 kts 273°
2026-04-27 22:49 28.59790 -81.41373 7961 ft 275 kts 270°
2026-04-27 22:50 28.59749 -81.43559 8324 ft 277 kts 270°
2026-04-27 22:50 28.59707 -81.45754 8705 ft 279 kts 271°
2026-04-27 22:50 28.59664 -81.47974 9081 ft 281 kts 269°
2026-04-27 22:50 28.59263 -81.50165 9458 ft 287 kts 253°
2026-04-27 22:51 28.58523 -81.52287 9840 ft 290 kts 249°
2026-04-27 22:51 28.57687 -81.54421 10222 ft 307 kts 248°
2026-04-27 22:51 28.56775 -81.56706 10574 ft 337 kts 248°
2026-04-27 22:51 28.55763 -81.59238 10948 ft 360 kts 248°
2026-04-27 22:52 28.54716 -81.61857 11312 ft 366 kts 248°
2026-04-27 22:52 28.53658 -81.64500 11673 ft 368 kts 248°
2026-04-27 22:52 28.52598 -81.67155 12037 ft 369 kts 248°
2026-04-27 22:52 28.51536 -81.69819 12412 ft 370 kts 248°
2026-04-27 22:53 28.50472 -81.72490 12784 ft 371 kts 248°
2026-04-27 22:53 28.49405 -81.75168 13159 ft 373 kts 248°
2026-04-27 22:53 28.48335 -81.77855 13545 ft 374 kts 248°
2026-04-27 22:53 28.47258 -81.80560 13926 ft 376 kts 248°
2026-04-27 22:54 28.46176 -81.83275 14271 ft 377 kts 248°
2026-04-27 22:54 28.45091 -81.85996 14618 ft 379 kts 248°
2026-04-27 22:54 28.44000 -81.88730 14964 ft 381 kts 248°
2026-04-27 22:54 28.42994 -81.91508 15320 ft 380 kts 255°
2026-04-27 22:55 28.42538 -81.94457 15668 ft 379 kts 268°
2026-04-27 22:55 28.42478 -81.97452 16046 ft 380 kts 272°
2026-04-27 22:55 28.42556 -82.00464 16415 ft 382 kts 274°
2026-04-27 22:55 28.42663 -82.03483 16791 ft 384 kts 274°
2026-04-27 22:56 28.42761 -82.06517 17174 ft 386 kts 273°
2026-04-27 22:56 28.42841 -82.09513 17542 ft 388 kts 272°
2026-04-27 22:56 28.42909 -82.12591 17928 ft 390 kts 272°
2026-04-27 22:56 28.42967 -82.15674 18315 ft 393 kts 272°
2026-04-27 22:57 28.43019 -82.18787 18669 ft 394 kts 272°
2026-04-27 22:57 28.43068 -82.21905 19008 ft 396 kts 272°
2026-04-27 22:57 28.43116 -82.25043 19339 ft 398 kts 272°
2026-04-27 22:57 28.43162 -82.28193 19691 ft 400 kts 271°
2026-04-27 22:58 28.43208 -82.31360 20058 ft 402 kts 271°
2026-04-27 22:58 28.43257 -82.34491 20412 ft 403 kts 272°
2026-04-27 22:58 28.43434 -82.37683 20782 ft 405 kts 277°
2026-04-27 22:58 28.43938 -82.40838 21154 ft 407 kts 284°
2026-04-27 22:59 28.44787 -82.43910 21525 ft 409 kts 290°
2026-04-27 22:59 28.46005 -82.46838 21903 ft 412 kts 300°
2026-04-27 22:59 28.47683 -82.49493 22301 ft 416 kts 310°
2026-04-27 22:59 28.49782 -82.51772 22680 ft 421 kts 320°
2026-04-27 23:00 28.54768 -82.55392 23482 ft 429 kts 328°
2026-04-27 23:00 28.57385 -82.57060 23840 ft 432 kts 328°
2026-04-27 23:00 28.60008 -82.58737 24171 ft 434 kts 328°
2026-04-27 23:01 28.62632 -82.60444 24512 ft 436 kts 328°
2026-04-27 23:01 28.65261 -82.62187 24860 ft 437 kts 327°
2026-04-27 23:01 28.67884 -82.63946 25204 ft 438 kts 327°
2026-04-27 23:01 28.70510 -82.65721 25563 ft 440 kts 327°
2026-04-27 23:02 28.73143 -82.67506 25920 ft 441 kts 327°
2026-04-27 23:02 28.75781 -82.69298 26279 ft 442 kts 327°
2026-04-27 23:02 28.78428 -82.71097 26644 ft 444 kts 327°
2026-04-27 23:02 28.81092 -82.72908 27018 ft 445 kts 327°
2026-04-27 23:03 28.83752 -82.74718 27397 ft 447 kts 327°
2026-04-27 23:03 28.86436 -82.76543 27768 ft 449 kts 327°
2026-04-27 23:03 28.89120 -82.78370 28164 ft 450 kts 327°
2026-04-27 23:03 28.91820 -82.80209 28545 ft 452 kts 327°
2026-04-27 23:04 28.94529 -82.82056 28931 ft 454 kts 327°
2026-04-27 23:04 28.97249 -82.83910 29323 ft 456 kts 327°
2026-04-27 23:04 28.99978 -82.85773 29740 ft 458 kts 327°
2026-04-27 23:04 29.02680 -82.87618 30139 ft 460 kts 327°
2026-04-27 23:05 29.05464 -82.89520 30496 ft 462 kts 327°
2026-04-27 23:05 29.08212 -82.91439 30852 ft 463 kts 325°
2026-04-27 23:05 29.10846 -82.93459 31205 ft 463 kts 323°
2026-04-27 23:05 29.13474 -82.95591 31570 ft 462 kts 322°
2026-04-27 23:06 29.16066 -82.97742 31938 ft 460 kts 322°
2026-04-27 23:06 29.18653 -82.99898 32315 ft 458 kts 322°
2026-04-27 23:06 29.21224 -83.02035 32698 ft 456 kts 322°
2026-04-27 23:06 29.23784 -83.04154 33074 ft 454 kts 322°
2026-04-27 23:07 29.26341 -83.06263 33472 ft 452 kts 322°
2026-04-27 23:07 29.28892 -83.08359 33872 ft 450 kts 322°
2026-04-27 23:07 29.31430 -83.10441 34241 ft 447 kts 322°
2026-04-27 23:07 29.33949 -83.12507 34587 ft 445 kts 322°
2026-04-27 23:08 29.36463 -83.14568 34951 ft 442 kts 322°
2026-04-27 23:08 29.38956 -83.16614 35310 ft 440 kts 322°
2026-04-27 23:08 29.41436 -83.18650 35675 ft 437 kts 322°
2026-04-27 23:08 29.43898 -83.20673 36050 ft 435 kts 322°
2026-04-27 23:09 29.46351 -83.22690 36426 ft 432 kts 322°
2026-04-27 23:09 29.48789 -83.24696 36810 ft 430 kts 322°
2026-04-27 23:09 29.51213 -83.26692 37041 ft 428 kts 322°
2026-04-27 23:09 29.53630 -83.28683 37082 ft 427 kts 322°
2026-04-27 23:10 29.58449 -83.32658 37101 ft 426 kts 322°
2026-04-27 23:10 29.63266 -83.36635 37094 ft 426 kts 322°
2026-04-27 23:11 29.68078 -83.40613 37096 ft 426 kts 322°
2026-04-27 23:11 29.72883 -83.44589 37089 ft 425 kts 322°
2026-04-27 23:12 29.77683 -83.48566 37098 ft 425 kts 322°
2026-04-27 23:12 29.82455 -83.52524 37103 ft 424 kts 322°
2026-04-27 23:13 29.87239 -83.56504 37111 ft 424 kts 322°
2026-04-27 23:13 29.92014 -83.60487 37115 ft 424 kts 322°
2026-04-27 23:14 29.96798 -83.64474 37127 ft 424 kts 322°
2026-04-27 23:14 30.01577 -83.68456 37122 ft 423 kts 322°
2026-04-27 23:15 30.05393 -83.71637 37121 ft 423 kts 322°
2026-04-27 23:15 30.10773 -83.76129 37119 ft 423 kts 322°
2026-04-27 23:16 30.15537 -83.80111 37114 ft 423 kts 322°
2026-04-27 23:16 30.19539 -83.83467 37103 ft 423 kts 322°
2026-04-27 23:17 30.24274 -83.87445 37107 ft 423 kts 322°
2026-04-27 23:17 30.29045 -83.91454 37094 ft 423 kts 322°
2026-04-27 23:18 30.33810 -83.95460 37103 ft 424 kts 322°
2026-04-27 23:18 30.38587 -83.99480 37107 ft 424 kts 322°
2026-04-27 23:19 30.43353 -84.03497 37112 ft 424 kts 322°
2026-04-27 23:19 30.48127 -84.07525 37107 ft 424 kts 322°
2026-04-27 23:20 30.52893 -84.11552 37115 ft 424 kts 322°
2026-04-27 23:20 30.57636 -84.15563 37106 ft 424 kts 322°
2026-04-27 23:21 30.62405 -84.19603 37125 ft 425 kts 322°
2026-04-27 23:21 30.67194 -84.23663 37112 ft 425 kts 321°
2026-04-27 23:22 30.71967 -84.27717 37123 ft 425 kts 321°
2026-04-27 23:22 30.76748 -84.31781 37111 ft 425 kts 321°
2026-04-27 23:23 30.81531 -84.35852 37127 ft 426 kts 321°
2026-04-27 23:23 30.86298 -84.39926 37079 ft 426 kts 323°
2026-04-27 23:24 30.91063 -84.44009 37123 ft 425 kts 323°
2026-04-27 23:24 30.95826 -84.48085 37129 ft 424 kts 323°
2026-04-27 23:25 31.00587 -84.52158 37130 ft 424 kts 323°
2026-04-27 23:25 31.05330 -84.56221 37129 ft 424 kts 323°
2026-04-27 23:26 31.10052 -84.60271 37130 ft 424 kts 323°
2026-04-27 23:26 31.14805 -84.64353 37129 ft 424 kts 323°
2026-04-27 23:27 31.19562 -84.68443 37129 ft 424 kts 323°
2026-04-27 23:27 31.24315 -84.72536 37133 ft 424 kts 323°
2026-04-27 23:28 31.29067 -84.76632 37137 ft 424 kts 323°
2026-04-27 23:28 31.33811 -84.80727 37139 ft 424 kts 323°
2026-04-27 23:29 31.38556 -84.84828 37137 ft 424 kts 323°
2026-04-27 23:29 31.43271 -84.88908 37137 ft 424 kts 323°
2026-04-27 23:30 31.48017 -84.93021 37138 ft 424 kts 323°
2026-04-27 23:30 31.52756 -84.97139 37136 ft 424 kts 323°
2026-04-27 23:31 31.57491 -85.01259 37138 ft 424 kts 323°
2026-04-27 23:31 31.62275 -85.05336 36616 ft 426 kts 323°
2026-04-27 23:32 31.64681 -85.07375 35990 ft 427 kts 323°
2026-04-27 23:32 31.67093 -85.09418 35389 ft 430 kts 324°
2026-04-27 23:32 31.69540 -85.11493 34795 ft 434 kts 324°
2026-04-27 23:32 31.71993 -85.13575 34215 ft 437 kts 324°
2026-04-27 23:33 31.74469 -85.15678 33566 ft 441 kts 324°
2026-04-27 23:33 31.76965 -85.17799 32915 ft 444 kts 324°
2026-04-27 23:33 31.79475 -85.19935 32283 ft 447 kts 324°
2026-04-27 23:33 31.82005 -85.22089 31665 ft 451 kts 324°
2026-04-27 23:34 31.84517 -85.24230 31068 ft 454 kts 323°
2026-04-27 23:34 31.87079 -85.26415 30481 ft 457 kts 323°
2026-04-27 23:34 31.89659 -85.28617 29846 ft 456 kts 323°
2026-04-27 23:34 31.92222 -85.30806 29159 ft 453 kts 323°
2026-04-27 23:35 31.94755 -85.32971 28492 ft 449 kts 323°
2026-04-27 23:35 31.97274 -85.35126 27835 ft 445 kts 323°
2026-04-27 23:35 31.99766 -85.37258 27207 ft 441 kts 323°
2026-04-27 23:35 32.02240 -85.39377 26584 ft 437 kts 323°
2026-04-27 23:36 32.04693 -85.41479 25977 ft 433 kts 323°
2026-04-27 23:36 32.07118 -85.43559 25444 ft 429 kts 323°
2026-04-27 23:36 32.09532 -85.45630 25091 ft 427 kts 323°
2026-04-27 23:36 32.11924 -85.47684 24740 ft 425 kts 323°
2026-04-27 23:37 32.14317 -85.49741 24209 ft 423 kts 323°
2026-04-27 23:37 32.16629 -85.51728 23644 ft 410 kts 323°
2026-04-27 23:37 32.18902 -85.53682 22980 ft 397 kts 323°
2026-04-27 23:37 32.21105 -85.55578 22328 ft 386 kts 323°
2026-04-27 23:38 32.23244 -85.57420 21696 ft 376 kts 323°
2026-04-27 23:38 32.25329 -85.59224 21079 ft 367 kts 323°
2026-04-27 23:38 32.27362 -85.60987 20465 ft 359 kts 322°
2026-04-27 23:38 32.29356 -85.62716 19863 ft 352 kts 322°
2026-04-27 23:39 32.29469 -85.62814 19831 ft 352 kts 322°
2026-04-27 23:39 32.31396 -85.64483 19259 ft 345 kts 322°
2026-04-27 23:39 32.33319 -85.66148 18682 ft 340 kts 322°
2026-04-27 23:40 32.35215 -85.67788 18081 ft 335 kts 322°
2026-04-27 23:40 32.37083 -85.69404 17427 ft 330 kts 322°
2026-04-27 23:40 32.38926 -85.71000 16787 ft 327 kts 322°
2026-04-27 23:40 32.40726 -85.72559 16171 ft 324 kts 322°
2026-04-27 23:41 32.42537 -85.74128 15572 ft 321 kts 322°
2026-04-27 23:41 32.44279 -85.75637 14993 ft 302 kts 322°
2026-04-27 23:41 32.45961 -85.77095 14406 ft 297 kts 322°
2026-04-27 23:41 32.47626 -85.78540 13819 ft 296 kts 322°
2026-04-27 23:42 32.49279 -85.79975 13178 ft 295 kts 322°
2026-04-27 23:42 32.50938 -85.81416 12551 ft 295 kts 322°
2026-04-27 23:42 32.52590 -85.82851 12124 ft 294 kts 322°
2026-04-27 23:42 32.54239 -85.84285 11750 ft 294 kts 322°
2026-04-27 23:43 32.55890 -85.85720 11389 ft 294 kts 322°
2026-04-27 23:43 32.57536 -85.87152 11107 ft 293 kts 322°
2026-04-27 23:43 32.59180 -85.88582 11044 ft 293 kts 322°
2026-04-27 23:43 32.60820 -85.90011 11026 ft 293 kts 322°
2026-04-27 23:44 32.62468 -85.91446 11023 ft 293 kts 322°
2026-04-27 23:44 32.64111 -85.92878 11019 ft 293 kts 322°
2026-04-27 23:44 32.65760 -85.94316 11021 ft 294 kts 322°
2026-04-27 23:44 32.67383 -85.95732 11022 ft 294 kts 322°
2026-04-27 23:45 32.69032 -85.97171 11023 ft 294 kts 322°
2026-04-27 23:45 32.70677 -85.98607 11019 ft 294 kts 322°
2026-04-27 23:45 32.72325 -86.00047 11018 ft 294 kts 322°
2026-04-27 23:45 32.73973 -86.01488 11021 ft 294 kts 322°
2026-04-27 23:46 32.75617 -86.02925 11020 ft 294 kts 322°
2026-04-27 23:46 32.77264 -86.04365 11020 ft 294 kts 322°
2026-04-27 23:46 32.78913 -86.05809 11019 ft 294 kts 322°
2026-04-27 23:46 32.80554 -86.07246 11020 ft 294 kts 322°
2026-04-27 23:47 32.82207 -86.08694 11019 ft 294 kts 322°
2026-04-27 23:47 32.83851 -86.10135 11019 ft 294 kts 322°
2026-04-27 23:47 32.85495 -86.11576 11018 ft 294 kts 322°
2026-04-27 23:47 32.87146 -86.13025 11017 ft 294 kts 321°
2026-04-27 23:48 32.88798 -86.14475 11020 ft 294 kts 321°
2026-04-27 23:48 32.90443 -86.15919 11019 ft 294 kts 321°
2026-04-27 23:48 32.92086 -86.17368 11015 ft 294 kts 321°
2026-04-27 23:48 32.93730 -86.18822 11017 ft 294 kts 321°
2026-04-27 23:49 32.95371 -86.20273 11018 ft 294 kts 321°
2026-04-27 23:49 32.97012 -86.21723 11022 ft 294 kts 321°
2026-04-27 23:49 32.98654 -86.23172 11025 ft 294 kts 321°
2026-04-27 23:49 33.00295 -86.24620 11022 ft 294 kts 321°
2026-04-27 23:50 33.01938 -86.26068 11023 ft 293 kts 321°
2026-04-27 23:50 33.03562 -86.27501 11026 ft 294 kts 321°
2026-04-27 23:50 33.05205 -86.28951 11029 ft 294 kts 321°
2026-04-27 23:50 33.06848 -86.30400 11028 ft 293 kts 321°
2026-04-27 23:51 33.08490 -86.31850 11028 ft 294 kts 321°
2026-04-27 23:51 33.10131 -86.33300 11001 ft 294 kts 321°
2026-04-27 23:51 33.11860 -86.34581 10415 ft 295 kts 336°
2026-04-27 23:51 33.13876 -86.34990 9827 ft 295 kts
2026-04-27 23:52 33.15858 -86.34394 9206 ft 294 kts 21°
2026-04-27 23:52 33.17635 -86.33379 8591 ft 271 kts 25°
2026-04-27 23:52 33.19254 -86.32370 7971 ft 257 kts 26°
2026-04-27 23:52 33.20809 -86.31390 7367 ft 247 kts 26°
2026-04-27 23:53 33.22322 -86.30435 6785 ft 245 kts 25°
2026-04-27 23:53 33.23789 -86.29497 6181 ft 230 kts 26°
2026-04-27 23:53 33.25159 -86.28619 5564 ft 218 kts 26°
2026-04-27 23:53 33.26490 -86.27793 4963 ft 213 kts 26°
2026-04-27 23:54 33.27806 -86.27011 4347 ft 210 kts 26°
2026-04-27 23:54 33.29111 -86.26271 3962 ft 208 kts 26°
2026-04-27 23:54 33.30424 -86.25551 3612 ft 207 kts 26°
2026-04-27 23:54 33.31736 -86.24853 3247 ft 206 kts 26°
2026-04-27 23:55 33.33039 -86.24177 3035 ft 203 kts 27°
2026-04-27 23:55 33.34301 -86.23419 3012 ft 203 kts 32°
2026-04-27 23:55 33.35522 -86.22590 3024 ft 201 kts 34°
2026-04-27 23:55 33.36715 -86.21719 2947 ft 202 kts 36°
2026-04-27 23:56 33.37857 -86.20800 2750 ft 199 kts 38°
2026-04-27 23:56 33.39011 -86.19882 2494 ft 198 kts 38°
2026-04-27 23:56 33.40144 -86.18945 2352 ft 198 kts 43°
2026-04-27 23:56 33.41239 -86.17962 2365 ft 198 kts 41°
2026-04-27 23:57 33.42379 -86.17032 2370 ft 200 kts 37°
2026-04-27 23:57 33.43562 -86.16152 2445 ft 199 kts 36°
2026-04-27 23:57 33.44701 -86.15345 2460 ft 184 kts 35°
2026-04-27 23:57 33.45798 -86.14599 2283 ft 179 kts 33°
2026-04-27 23:58 33.46902 -86.13894 1974 ft 179 kts 33°
2026-04-27 23:58 33.47992 -86.13205 1691 ft 176 kts 33°
2026-04-27 23:58 33.49041 -86.12498 1424 ft 169 kts 34°
2026-04-27 23:58 33.50037 -86.11784 1167 ft 168 kts 36°
2026-04-27 23:59 33.51005 -86.11020 1147 ft 166 kts 37°
2026-04-27 23:59 33.51970 -86.10229 1037 ft 168 kts 39°
2026-04-27 23:59 33.52910 -86.09421 986 ft 164 kts 40°
2026-04-27 23:59 33.53782 -86.08528 841 ft 168 kts 46°
2026-04-28 00:00 33.54612 -86.07564 761 ft 163 kts 48°
2026-04-28 00:00 33.55357 -86.06647 661 ft 144 kts 47°
2026-04-28 00:00 33.56072 -86.05885 579 ft 130 kts 41°
2026-04-28 00:00 33.56754 -86.05284 531 ft 95 kts 34°
2026-04-28 00:01 33.57012 -86.05065 533 ft 5 kts 35°
2026-04-28 00:01 33.57023 -86.05057 535 ft 5 kts 35°
2026-04-28 00:01 33.57067 -86.05019 534 ft 11 kts 35°
2026-04-28 00:01 33.57113 -86.04979 536 ft 14 kts 36°
2026-04-28 00:02 33.57201 -86.04904 537 ft 15 kts 36°
2026-04-28 00:02 33.57305 -86.04819 539 ft 21 kts 33°
2026-04-28 00:02 33.57465 -86.04689 542 ft 22 kts 35°
2026-04-28 00:02 33.57574 -86.04598 543 ft 12 kts 34°
2026-04-28 00:03 33.57604 -86.04580 544 ft 0 kts 15°
2026-04-28 00:04 33.57605 -86.04580 544 ft 0 kts 12°
2026-04-28 00:04 33.57647 -86.04612 544 ft 4 kts 304°
2026-04-28 00:04 33.57652 -86.04638 547 ft 3 kts 283°
2026-04-28 00:05 33.57654 -86.04672 544 ft 5 kts 264°
2026-04-28 00:05 33.57648 -86.04707 544 ft 2 kts 253°
2026-04-28 00:05 33.57649 -86.04737 544 ft 7 kts 280°
2026-04-28 00:05 33.57660 -86.04759 544 ft 2 kts 301°
2026-04-28 00:06 33.57664 -86.04768 544 ft 0 kts 301°